Flag for Germany Weather past 2 weeks in Erftstadt, North Rhine-Westphalia, Germany

Now
48 °F

Light rain. Partly cloudy.


Feels Like: 43 °F
Forecast: 42 / 53 °F
Wind: 12 mph from Southwest

Location: Noervenich

Current Time: Mar 30, 2015 at 2:40:27 AM

Latest Report: Mar 30, 2015 at 1:20 AM


Visibility: N/A

Pressure: 29.45 "Hg

Humidity: 76%

Dew point: 41 °F

Location of ErftstadtLocation

Historic Weather in Erftstadt — Graph

°F

Erftstadt temperature yesterday

Maximum temperature yesterday: 54 °F (at 12:20 AM)
Minimum temperature yesterday: 46 °F (at 9:20 PM)
Average temperature yesterday: 52 °F

Past Weeks' High & Low Weather Summary

 TemperatureHumidityPressure
High63 °F (Mar 17, 4:20 PM)100% (Mar 16, 5:20 AM)30.36 "Hg (Mar 16, 5:20 AM)
Low30 °F (Mar 16, 5:20 AM)40% (Mar 26, 1:20 PM)29.33 "Hg (Mar 29, 6:20 PM)
Average44 °F80%30.05 "Hg
* Reported Mar 15 12:20 AM — Mar 30 1:20 AM, Erftstadt, Weather by CustomWeather, © 2015

Note: Actual official high and low records may vary slightly from our data, if they occured in-between our weather recording intervals... More about our weather records

Advertising

Erftstadt weather history for previous 24 hours

 ConditionsComfort  
Time TempWeatherWind HumidityBarometerVisibility
1:20 AM
Mon, Mar 30
48 °FLight rain. Partly cloudy.12 mph76%29.45 "HgN/A
12:20 AM48 °FPassing clouds.13 mph71%29.45 "HgN/A
11:20 PM
Sun, Mar 29
48 °FPartly cloudy.14 mph76%29.45 "HgN/A
10:20 PM50 °FPassing clouds.17 mph76%29.42 "HgN/A
9:20 PM46 °FSprinkles. Partly cloudy.21 mph93%29.39 "HgN/A
9:04 PM50 °FRain showers. Fog.25 mph88%29.39 "Hg1 mi
8:20 PM52 °FLight rain. Partly sunny.20 mph88%29.33 "Hg4 mi
7:20 PM54 °FLight rain. Fog.25 mph82%29.33 "Hg2 mi
6:20 PM54 °FLight rain. Partly sunny.29 mph82%29.33 "Hg5 mi
5:20 PM54 °FLight rain. Partly sunny.16 mph82%29.36 "HgN/A
4:20 PM52 °FRain. Cloudy.15 mph88%29.42 "Hg4 mi
3:20 PM54 °FPartly sunny.13 mph77%29.45 "HgN/A
2:20 PM54 °FLight rain. Cloudy.13 mph77%29.50 "HgN/A
1:20 PM52 °FLight rain. Broken clouds.13 mph82%29.56 "HgN/A
12:20 PM52 °FLight rain. Partly sunny.12 mph77%29.59 "HgN/A
11:20 AM50 °FCool.12 mph82%29.65 "HgN/A
10:20 AM50 °FCool.10 mph82%29.68 "HgN/A
9:20 AM50 °FCool.10 mph76%29.68 "HgN/A
8:20 AM52 °FCool.13 mph72%29.71 "HgN/A
7:20 AM52 °FCool.16 mph72%29.71 "HgN/A
5:20 AM52 °FPartly cloudy.16 mph72%29.74 "HgN/A
4:20 AM52 °FPassing clouds.15 mph77%29.74 "HgN/A
3:20 AM52 °FPassing clouds.12 mph82%29.77 "HgN/A
Weather by CustomWeather, © 2015

See weather overviewHow to use our weather pages